Location: Aranbee
(34.0885°N, 118.2342°W)
Time: 22:35:40
(UTC+00:00)

Explorer 7 - Pass Details

Date: 01 August 2021
Orbit: 484 x 676 km, 50.3° (Epoch: 15 September)

Event Time Altitude Azimuth Distance (km) Brightness Sun altitude
Exits shadow 11:37:06 32° 199° (SSW) 846 7.3 -16.6°
Maximum altitude 11:38:33 57° 135° (SE) 578 6.9 -16.4°
Drops below altitude 10° 11:42:18 10° 57° (ENE) 1,696 10.7 -15.8°
Sets 11:44:33 0° 53° (NE) 2,604 12.2 -15.4°
